Tracking 35275 objects as of 8-Sep-2026
HD Live streaming from Space Station
objects crossing your sky now

NOAA 16 DEB

Track NOAA 16 DEB now!
10-day predictions


NORAD ID: 42397
Int'l Code: 2000-055SR
Launch date: September 21, 2000
Source: United States (US)
Launch site: AIR FORCE WESTERN TEST RANGE (AFWTR)

Note: This is SATELLITE DEBRIS
Your satellite tracking list
Your tracking list is empty




NASA's NSSDC Master Catalog

Two Line Element Set (TLE):
1 42397U 00055SR  26250.06534025  .00005294  00000-0  14198-2 0  9990
2 42397  98.7317 350.1049 0028805  47.9589 312.4047 14.48350387545591
Source of the keplerian elements: AFSPC